Kamloops Aut, British Columbia

3:20 AM PST on February 12, 2016 (GMT -0800)
Kamloops

Weather History for CYKA - September, 2013

Change the Weather History Date:

Friday, September 13, 2013

  Actual Average Record
Temperature  
Mean Temperature 74 °F -  
Max Temperature 94 °F - - ()
Min Temperature 55 °F - - ()
Cooling Degree Days 10    
Growing Degree Days 24 (Base 50)    
Moisture  
Dew Point 51 °F    
Average Humidity 50    
Maximum Humidity 77    
Minimum Humidity 20    
Precipitation  
Precipitation 0.00 in - - ()
Sea Level Pressure  
Sea Level Pressure 29.87 in    
Wind  
Wind Speed 2 mph ()    
Max Wind Speed 7 mph    
Max Gust Speed -    
T = Trace of Precipitation, MM = Missing Value Source: Averaged Metar Reports

Daily Weather History Graph

Daily Weather History Graph

Search for Another Location

Airport or City:

Trip Planner

Search our weather history database for the weather conditions in past years. The results will help you decide how hot, cold, wet, or windy it might be!

Date:

Astronomy

Sep. 13, 2013 Rise Set
Actual Time 6:34 AM PDT 7:19 PM PDT
Civil Twilight 6:01 AM PDT 7:52 PM PDT
Nautical Twilight 5:21 AM PDT 8:31 PM PDT
Astronomical Twilight 4:39 AM PDT 9:13 PM PDT
Moon 3:40 PM PDT (9/13) No Moon Set
Length of Visible Light 13h 50m
Length of Day
12h 44m
Waxing Gibbous, 62% of the Moon is Illuminated
Sep 13
Waxing Gibbous
Sep 19
Full
Sep 26
Last Quarter
Oct 4
New
Oct 11
First Quarter

Hourly Weather History & Observations

Time (PDT) Temp. Heat Index Dew Point Humidity Pressure Visibility Wind Dir Wind Speed Gust Speed Precip Events Conditions
12:00 AM 66.2 °F - 55.4 °F 68% 29.88 in 40.0 mi SSW 2.3 mph - N/A   Clear
1:00 AM 64.4 °F - 55.4 °F 73% 29.90 in 40.0 mi Calm Calm - N/A   Clear
2:00 AM 62.6 °F - 51.8 °F 68% 29.91 in 40.0 mi Calm Calm - N/A   Clear
3:00 AM 60.8 °F - 53.6 °F 77% 29.91 in 40.0 mi Calm Calm - N/A   Clear
4:00 AM 60.8 °F - 51.8 °F 72% 29.93 in 40.0 mi Variable 2.3 mph - N/A   Clear
5:00 AM 61 °F - 53 °F 69% 29.93 in 37 mi East 2.3 mph - -  
5:00 AM 60.8 °F - 53.6 °F 77% 29.93 in 40.0 mi ESE 2.3 mph - N/A   Clear
6:00 AM 59.0 °F - 50.0 °F 72% 29.94 in 40.0 mi Calm Calm - N/A   Clear
7:00 AM 59.0 °F - 50.0 °F 72% 29.96 in 40.0 mi Calm Calm - N/A   Clear
8:00 AM 62.6 °F - 51.8 °F 68% 29.96 in 40.0 mi East 3.5 mph - N/A   Clear
9:00 AM 66.2 °F - 51.8 °F 60% 29.95 in 40.0 mi ESE 3.5 mph - N/A   Clear
10:00 AM 69.8 °F - 51.8 °F 53% 29.95 in 40.0 mi Calm Calm - N/A   Clear
11:00 AM 74 °F - 51 °F 33% 29.93 in 37 mi ESE 2.3 mph - -  
11:00 AM 73.4 °F - 51.8 °F 47% 29.93 in 40.0 mi SE 5.8 mph - N/A   Clear
12:00 PM 77.0 °F - 51.8 °F 41% 29.90 in 40.0 mi ESE 6.9 mph - N/A   Clear
1:00 PM 82.4 °F - 51.8 °F 35% 29.87 in 40.0 mi SSE 3.5 mph - N/A   Clear
2:00 PM 86.0 °F - 48.2 °F 27% 29.84 in 35.0 mi South 3.5 mph - N/A   Clear
3:00 PM 89.6 °F - 48.2 °F 24% 29.81 in 40.0 mi SW 4.6 mph - N/A   Clear
4:00 PM 93.2 °F - 48.2 °F 21% 29.78 in 40.0 mi South 2.3 mph - N/A   Clear
5:00 PM 93.2 °F - 46.4 °F 20% 29.76 in 40.0 mi ESE 3.5 mph - N/A   Clear
6:00 PM 91.4 °F - 51.8 °F 26% 29.76 in 40.0 mi ESE 4.6 mph - N/A   Clear
7:00 PM 84.2 °F 82.8 °F 53.6 °F 35% 29.76 in 40.0 mi West 4.6 mph - N/A   Clear
8:00 PM 75.2 °F - 53.6 °F 47% 29.78 in 40.0 mi WSW 3.5 mph - N/A   Clear
9:00 PM 78.8 °F - 50.0 °F 36% 29.80 in 40.0 mi West 3.5 mph - N/A   Clear
10:00 PM 75.2 °F - 46.4 °F 36% 29.81 in 40.0 mi West 5.8 mph - N/A   Clear
11:00 PM 69 °F - 48 °F 36% 29.83 in 37 mi Calm Calm - -  
11:00 PM 69.8 °F - 48.2 °F 46% 29.83 in 40.0 mi Variable 2.3 mph - N/A   Clear